STARLINK-1477, 45754

Orbit data source: Space-Track

STARLINK-1477, 45754 is a payload satellite owned by SpaceX/Seattle (US) in LEO that was launched on Sat, 13 Jun 2020 UTC via an FALCON 9 launch vehicle from the Air Force Eastern Test Range (AFETR). Payload-class satellites include a variety of spacecraft equipped with specific instruments for various scientific and technological missions. These include communications satellites like Starlink; space stations such as the ISS; scientific satellites like the Hubble; Earth observation satellites from companies like Planet Labs, Umbra, and HawkEye 360; GPS; miniature CubeSats for education and research; and military/defense satellites.

Loading next visibility...
Identifier
45754, 2020-038AA
Orbit
LEO
Country
Flag of USUS
Related business
Manufacturer
SpaceX/Seattle
Mission
Operational Commercial Communications
Bus & Motor
STARLINK, Unknown motor
Mass
260 kg wet, ~248 kg dry
Launch date (UTC)
2020-06-13 (5 years ago)
Launch vehicle
FALCON 9
Launch site
Air Force Eastern Test Range (AFETR)
Object type
Payload
Rocket body
Debris
Shape & HBR
Box + 1 Pan, 10.1 m
Radar Cross Section
13.562 m², Large (>1 m²)

Expand to show TLE details & history
Last TLE update: 1 day ago

TLE from 1 day ago
0 STARLINK-1477
1 45754U 20038AA  25309.70913381  .00035280  00000-0  23365-2 0  9998
2 45754  53.0553  53.1670 0001607  29.6796 330.4284 15.07013744297793
Epoch: 2025-11-05T17:01Z
TLE epoch observation values (Epoch: 2025-11-05T17:01:09.161Z)
Latitude
-0.00002°
Longitude
112.7009°
Altitude
545.243 km
Speed
7.591 km/s
True Right ascension
03h 32m 40s
True Declination
0° 00' 00"
Sunlit
Object was in full shadow at epoch
Visualization orbit readout
Latitude
Unknown
Longitude
Unknown
Altitude
Unknown
Speed
Unknown
Apparent Right ascension
Unknown
Apparent Declination
Unknown
Sunlit
N/A
Visualization observer readout
Local Sidereal Time
15:29:26
Azimuth
Unknown
Elevation
Unknown
Doppler factor
Unknown
Orbital elements
Apogee altitude
546.714 km
Perigee altitude
544.489 km
Semi-major axis
6,923.739 km
Eccentricity
0.00016
Inclination
53.0553°
RAAN
53.167°
Arg. of periapsis
29.6796°
True anomaly
330.41931°
Mean anomaly
330.4284°
Eccentric anomaly
330.42386°
Mean motion
3.76732 °/min
Orbital period
95.56 mins
BSTAR
0.0023365
Loading maneuver chart data...
Computing Atmospheric mass density...
Loading historical data...
Loading historical data...
Loading historical data...
Loading historical data...
Loading historical data...
Loading historical data...
Loading historical data...

Documentation

Showing up to 5 results
|